Regional Weather Roundup
Issued by NWS

Home | Current Version | Previous Version | Text Only | Print | Product List | Glossary Off
Versions: 1 2 3 4 5 6 7 8 9 10 11 12 13 14 15 16 17 18 19 20 21 22 23 24 25 26 27 28 29 30 31 32 33 34 35 36 37 38 39 40 41 42 43 44 45 46 47 48 49 50

000
ASUS45 KTFX 240519
RWRMT
MONTANA HOURLY WEATHER ROUNDUP
NATIONAL WEATHER SERVICE GREAT FALLS MT
1119 PM MDT THU OCT 23 2014

NOTE: "FAIR" INDICATES FEW OR NO CLOUDS BELOW 12000 FEET WITH NO
SIGNIFICANT WEATHER AND/OR OBSTRUCTIONS TO VISIBILITY.

* THESE STATIONS ARE NOT UNDER NWS QUALITY CONTROL. THEY DO NOT
   REPORT WEATHER SUCH AS PRECIPITATION OR FOG.

MTZ001>007-043-240600-
WEST OF THE DIVIDE
CITY           SKY/WX    TMP DP  RH WIND       PRES   REMARKS
KALISPELL      MOCLDY    48  37  66 S13       29.89R
MISSOULA       CLOUDY    48  39  71 SW7       30.00R
BUTTE          CLOUDY    45  37  74 VRB6      29.99S
MULLAN PASS    CLOUDY    34  34 100 SW14G26   29.95R WCI  24
* ESSEX        N/A       43  41  93 E8         N/A
* LINCOLN      N/A       45  42  89 SW4G10     N/A
* LOOKOUT PASS N/A       41  35  79 SE11G19    N/A
* POLSON       N/A       44  43  96 S3G9       N/A
* RONAN APT    CLOUDY    46  45  96 N/A        N/A
* SEELEY LAKE  N/A       44  42  93 S1         N/A
* THOMP F APT  CLOUDY    46  33  61 E6G12      N/A
$$

MTZ008-052>055-240600-
SOUTHWEST MONTANA
CITY           SKY/WX    TMP DP  RH WIND       PRES   REMARKS
BOZEMAN        CLOUDY    57  34  42 W21G32    29.95R
DILLON         CLOUDY    50  37  61 S7        30.00R
W YELLOWSTONE  CLOUDY    46  30  54 SW16G29   30.10S
* THREE FORKS  CLOUDY    57  45  64 N/A        N/A
* BOULDER HILL N/A       48  36  63 S6G17      N/A
* MONIDA PASS  N/A       44  33  65 S19        N/A
* RAYNOLDS PAS N/A       48  33  56 SE21G27    N/A
* WHITEHALL    N/A       53  39  59 N4G14      N/A
* WISE RIVER   N/A       44  39  83 NW4        N/A
$$

MTZ009>010-012-014-046-048-049-054-240600-
EAST SLOPES AND CENTRAL MONTANA
CITY           SKY/WX    TMP DP  RH WIND       PRES   REMARKS
CUT BANK       CLOUDY    48  36  63 W28G36    29.80R
GREAT FALLS    CLOUDY    50  39  66 SW10      29.88R
HELENA         MOCLDY    48  43  83 NW9       29.95R
MALMSTROM AFB  CLOUDY    54  39  57 SW12      29.89R
* CONRAD       CLOUDY    52  39  61 SW10       N/A
* DEARBORN     N/A       56  39  53 S6G12      N/A
* EAST GLACIER N/A       41  37  86 W13G20     N/A
* MONARCH      N/A       49  28  44 W13G20     N/A
* PENDROY      N/A       43  35  73 W6G12      N/A
* ROGERS PASS  N/A       42  38  86 SE18G29    N/A
* SAINT MARY   N/A       43  39  86 S4G17      N/A
* SWEET GRASS  N/A       49  38  66 SW26G32    N/A
* WHITE SULPH  N/A       46  40  80 W5G10      N/A
$$

MTZ011-013-016-021-035-040-045-047-050-051-240600-
NORTH CENTRAL MONTANA
CITY           SKY/WX    TMP DP  RH WIND       PRES   REMARKS
HAVRE          CLOUDY    54  41  62 SW10      29.79R
LEWISTOWN      CLOUDY    54  34  47 SW12      29.88R
* CHINOOK      CLOUDY    57  39  51 W7        29.77R
* FORT BENTON  CLOUDY    55  39  55 SW10      29.84R
* CHESTER      N/A       52  38  59 SW10G15    N/A
* DENTON       N/A       52  35  52 SW8        N/A
* GEYSER       N/A       52  33  48 W9         N/A
* JUDITH GAP   N/A       48  31  52 SE3        N/A
* LOMA         N/A       58  38  47 W18        N/A
$$

MTZ017>020-022>027-061-062-240600-
NORTHEAST MONTANA
CITY           SKY/WX    TMP DP  RH WIND       PRES   REMARKS
GLASGOW        CLOUDY    48  37  66 E3        29.77S
GLENDIVE       CLOUDY    41  34  76 W5        29.84S
JORDAN         PTCLDY    45  36  71 CALM      29.80F
SIDNEY         CLOUDY    43  36  76 CALM      29.82R
WOLF POINT     CLOUDY    43  37  79 CALM      29.78S
* BEAVER HILL  N/A       51  32  48 S14        N/A
* CIRCLE       N/A       49  38  66 N/A        N/A
* LINDSAY DVD  N/A       51  35  54 W2         N/A
* NAVAJO       N/A       51  38  61 SW11       N/A
$$

MTZ028>042-056>058-240600-
SOUTHCENTRAL AND SOUTHEAST MONTANA
CITY           SKY/WX    TMP DP  RH WIND       PRES   REMARKS
BAKER          CLOUDY    54  30  40 W8        29.88R
BILLINGS       MOCLDY    61  27  27 W10       29.88F
LIVINGSTON     MOCLDY    61  30  31 SW32G44   29.90R
MILES CITY     MOCLDY    48  34  59 SE5       29.85R
* LAUREL APT   MOCLDY    55  27  34 N/A        N/A
* ROUNDUP APT  PTCLDY    52  32  47 N/A        N/A
* ALZADA       N/A       44  31  60 E1         N/A
* HYSHAM       N/A       60  29  31 W3G8       N/A
* LAME DEER    N/A       55  29  37 S4         N/A
* REED POINT   N/A       43  32  65 N/A        N/A
* ROSCOE HILL  N/A       60  21  22 S11G40     N/A
$$

REGIONAL REPORTS...DAKOTAS
CITY           SKY/WX    TMP DP  RH WIND       PRES   REMARKS
WILLISTON      CLOUDY    45  36  71 CALM      29.78R
DICKINSON      CLOUDY    55  30  39 SW14      29.82R
BEACH          N/A       48  32  54 SW8       29.86R
CROSBY         CLEAR     52  37  57 SW13      29.74S
TIOGA          CLEAR     45  36  71 SW8       29.80S
BISMARCK       CLOUDY    50  32  50 W5        29.82S
GRAND FORKS    CLOUDY    46  39  77 S8        29.75F
FARGO          CLOUDY    54  41  62 S10       29.81F
BUFFALO SD     CLOUDY    52  27  38 W6        29.83R
RAPID CITY     PTCLDY    43  34  71 NW3       29.92F
$$

REGIONAL REPORTS...WYOMING/IDAHO/WASHINGTON
CITY           SKY/WX    TMP DP  RH WIND       PRES   REMARKS
GILLETTE       CLOUDY    48  28  46 CALM      29.93F
SHERIDAN       CLOUDY    46  32  58 E6        29.92R
CODY           CLOUDY    57  27  32 SE6       29.99R
YELLOWSTONE LA CLOUDY    43  28  56 CALM      30.19R
SALMON         CLOUDY    48  43  83 CALM      30.00R
MULLAN PASS    CLOUDY    34  34 100 SW14G26   29.95S WCI  24
SAND POINT     N/A       48  43  83 SW5       29.92R
SPOKANE        CLOUDY    46  45  96 SW15      29.95R
$$

REGIONAL REPORTS...ALBERTA
CITY           SKY/WX    TMP DP  RH WIND       PRES   REMARKS
CALGARY        MOCLDY    46  30  54 W18G28    29.62R
LETHBRIDGE     FAIR      52  34  50 SW28G43   29.66R
MEDICINE HAT   CLOUDY    55  39  55 SW17G24   29.67R
EDMONTON       FAIR      32  23  69 N9        29.59R WCI  24
WATERTON GATE  N/A       45  30  56 SW21G39    N/A
CARDSTON       N/A       43  37  79 S9         N/A
MILK RIVER     N/A       48  39  71 SW23G30    N/A
$$

REGIONAL REPORTS...SASKATCHEWAN
CITY           SKY/WX    TMP DP  RH WIND       PRES   REMARKS
SWIFT CURRENT  MOCLDY    52  41  66 SW18G24   29.66R
REGINA         FAIR      46  39  77 S6        29.67F
VAL MARIE      N/A       52  39  61 S9         N/A
ASSINIBOIA     N/A       50  39  66 SW12       N/A
CORONACH       N/A       52  39  61 SW8        N/A

$$




USA.gov is the U.S. government's official web portal to all federal, state and local government web resources and services.